Location: Anjeux
(47.8815°N, 6.2076°E)
Time: 10:44:06
(UTC+00:00)

AO-27 - Pass Details

Date: 13 December 2021
Orbit: 784 x 798 km, 98.9° (Epoch: 24 January)

Event Time Altitude Azimuth Distance (km) Brightness Sun altitude
Rises 18:27:16 0° 179° (S) 3,288 10.9 -26.5°
Reaches altitude 10° 18:29:40 10° 184° (S) 2,364 10.2 -26.9°
Maximum altitude 18:34:44 50° 260° (W) 1,008 8.5 -27.7°
Drops below altitude 10° 18:39:51 10° 336° (NNW) 2,382 10.3 -28.6°
Sets 18:42:16 0° 341° (NNW) 3,315 11.1 -29.0°
